Weather History for West Yellowstone, MT

Change the Weather History Date:

Wednesday, November 28, 2012

  Actual Average Record
Temperature  
Mean Temperature 26 °F -  
Max Temperature 41 °F 25 °F 41 °F (2012)
Min Temperature 12 °F 4 °F 12 °F (2012)
Degree Days  
Heating Degree Days 38    
Moisture  
Dew Point -    
Average Humidity    
Maximum Humidity    
Minimum Humidity    
Precipitation  
Precipitation 0.00 in - - ()
Sea Level Pressure  
Sea Level Pressure 30.12 in    
Wind  
Wind Speed 1 mph (SSW)    
Max Wind Speed 9 mph    
Max Gust Speed -    
Visibility 7 miles    
Events Fog    
Averages and records for this station are not official NWS values.
T = Trace of Precipitation, MM = Missing Value Source: NWS Daily Summary

Daily Weather History Graph

Daily Weather History Graph

Search for Another Location

Airport:

Trip Planner

Search our weather history database for the weather conditions in past years. The results will help you decide how hot, cold, wet, or windy it might be!

Date:

Astronomy

Nov. 28, 2012 Rise Set
Actual Time 7:38 AM MST 4:46 PM MST
Civil Twilight 7:05 AM MST 5:19 PM MST
Nautical Twilight 6:29 AM MST 5:55 PM MST
Astronomical Twilight 5:54 AM MST 6:30 PM MST
Moon 5:03 PM MST (11/28) 7:39 AM MST (11/28)
Length of Visible Light 10h 13m
Length of Day
9h 07m
Full, 100% of the Moon is Illuminated
Nov 28
Full
Dec 6
Last Quarter
Dec 13
New
Dec 19
First Quarter
Dec 28
Full

Hourly Weather History & Observations

Time (MST) Temp. Windchill Dew Point Humidity Pressure Visibility Wind Dir Wind Speed Gust Speed Precip Events Conditions
12:10 AM 15.8 °F 10.2 °F - N/A% 30.22 in 10.0 mi SSW 3.5 mph - N/A   Clear
12:30 AM 15.8 °F - - N/A% 30.22 in 10.0 mi Calm Calm - N/A   Clear
12:50 AM 14.0 °F - - N/A% 30.22 in 10.0 mi Calm Calm - N/A   Clear
1:10 AM 14.0 °F - - N/A% 30.22 in 10.0 mi Calm Calm - N/A   Clear
1:30 AM 14.0 °F - - N/A% 30.22 in 10.0 mi Calm Calm - N/A   Clear
1:50 AM 14.0 °F 8.2 °F - N/A% 30.22 in 10.0 mi SW 3.5 mph - N/A   Clear
2:10 AM 12.2 °F - - N/A% 30.22 in 10.0 mi Calm Calm - N/A   Mostly Cloudy
2:30 AM 14.0 °F - - N/A% 30.22 in 0.5 mi Calm Calm - N/A Fog Light Freezing Fog
2:50 AM 14.0 °F - - N/A% 30.22 in 0.5 mi Calm Calm - N/A Fog Light Freezing Fog
3:10 AM 14.0 °F - - N/A% 30.22 in 0.5 mi Calm Calm - N/A Fog Light Freezing Fog
3:30 AM 14.0 °F - - N/A% 30.21 in 0.5 mi Calm Calm - N/A Fog Light Freezing Fog
3:50 AM 14.0 °F - - N/A% 30.22 in 0.2 mi Calm Calm - N/A Fog Light Freezing Fog
4:10 AM 14.0 °F - - N/A% 30.21 in 0.2 mi Calm Calm - N/A Fog Light Freezing Fog
4:30 AM 14.0 °F - - N/A% 30.21 in 0.2 mi Calm Calm - N/A Fog Light Freezing Fog
4:50 AM 14.0 °F - - N/A% 30.21 in 0.2 mi Calm Calm - N/A Fog Light Freezing Fog
5:10 AM 14.0 °F - - N/A% 30.21 in 0.2 mi Calm Calm - N/A Fog Light Freezing Fog
5:30 AM 14.0 °F - - N/A% 30.21 in 0.2 mi Calm Calm - N/A Fog Light Freezing Fog
5:50 AM 14.0 °F - - N/A% 30.21 in 0.8 mi Calm Calm - N/A   Overcast
6:10 AM 14.0 °F 8.2 °F - N/A% 30.20 in 0.8 mi SSW 3.5 mph - N/A   Overcast
6:30 AM 14.0 °F - - N/A% 30.21 in 1.0 mi Calm Calm - N/A   Overcast
6:50 AM 14.0 °F - - N/A% 30.20 in 5.0 mi Calm Calm - N/A   Haze
7:10 AM 14.0 °F - - N/A% 30.21 in 1.8 mi Calm Calm - N/A   Overcast
7:30 AM 14.0 °F 8.2 °F - N/A% 30.21 in 0.2 mi SSW 3.5 mph - N/A Fog Light Freezing Fog
7:50 AM 12.2 °F - - N/A% 30.21 in 0.8 mi Calm Calm - N/A   Overcast
8:10 AM 12.2 °F - - N/A% 30.21 in 0.2 mi Calm Calm - N/A Fog Light Freezing Fog
8:30 AM 12.2 °F - - N/A% 30.21 in 1.2 mi Calm Calm - N/A   Overcast
8:50 AM 14.0 °F - - N/A% 30.20 in 0.5 mi Calm Calm - N/A Fog Light Freezing Fog
9:10 AM 15.8 °F - - N/A% 30.21 in 5.0 mi Calm Calm - N/A   Haze
9:30 AM 15.8 °F - - N/A% 30.21 in 8.0 mi Calm Calm - N/A   Partly Cloudy
9:50 AM 17.6 °F - - N/A% 30.21 in 9.0 mi Calm Calm - N/A   Clear
10:10 AM 19.4 °F - - N/A% 30.21 in 10.0 mi Calm Calm - N/A   Clear
10:30 AM 21.2 °F - - N/A% 30.20 in 10.0 mi Calm Calm - N/A   Clear
10:50 AM 23.0 °F - - N/A% 30.20 in 10.0 mi Calm Calm - N/A   Clear
11:30 AM 24.8 °F 20.5 °F - N/A% 30.18 in 10.0 mi ENE 3.5 mph - N/A   Clear
11:50 AM 26.6 °F - - N/A% 30.17 in 10.0 mi Calm Calm - N/A   Clear
12:10 PM 28.4 °F - - N/A% 30.15 in 10.0 mi Calm Calm - N/A   Clear
12:30 PM 30.2 °F - - N/A% 30.14 in 10.0 mi Calm Calm - N/A   Clear
12:50 PM 32.0 °F - - N/A% 30.13 in 10.0 mi Calm Calm - N/A   Clear
1:10 PM 33.8 °F 30.8 °F - N/A% 30.12 in 10.0 mi SSE 3.5 mph - N/A   Clear
1:30 PM 35.6 °F - - N/A% 30.10 in 10.0 mi Calm Calm - N/A   Clear
1:50 PM 37.4 °F - - N/A% 30.08 in 10.0 mi Calm Calm - N/A   Clear
2:10 PM 39.2 °F - - N/A% 30.08 in 10.0 mi Calm Calm - N/A   Clear
2:30 PM 41.0 °F 37.1 °F - N/A% 30.06 in 10.0 mi WSW 5.8 mph - N/A   Clear
2:50 PM 41.0 °F 35.8 °F - N/A% 30.05 in 10.0 mi SSW 8.1 mph - N/A   Clear
3:10 PM 41.0 °F 35.2 °F - N/A% 30.05 in 10.0 mi South 9.2 mph - N/A   Clear
3:30 PM 39.2 °F 35.0 °F - N/A% 30.04 in 10.0 mi SSW 5.8 mph - N/A   Clear
3:50 PM 39.2 °F 35.0 °F - N/A% 30.04 in 10.0 mi SSW 5.8 mph - N/A   Clear
4:10 PM 37.4 °F 34.9 °F - N/A% 30.04 in 10.0 mi South 3.5 mph - N/A   Clear
4:30 PM 35.6 °F - - N/A% 30.03 in 10.0 mi Calm Calm - N/A   Clear
4:50 PM 32.0 °F - - N/A% 30.03 in 10.0 mi Calm Calm - N/A   Clear
5:10 PM 30.2 °F - - N/A% 30.03 in 10.0 mi Calm Calm - N/A   Clear
5:30 PM 28.4 °F - - N/A% 30.03 in 10.0 mi Calm Calm - N/A   Clear
5:50 PM 28.4 °F - - N/A% 30.04 in 10.0 mi Calm Calm - N/A   Clear
6:10 PM 28.4 °F - - N/A% 30.03 in 10.0 mi Calm Calm - N/A   Clear
6:30 PM 28.4 °F - - N/A% 30.02 in 10.0 mi Calm Calm - N/A   Partly Cloudy
6:50 PM 28.4 °F - - N/A% 30.02 in 10.0 mi Calm Calm - N/A   Mostly Cloudy
7:10 PM 28.4 °F 23.3 °F - N/A% 30.02 in 10.0 mi SSW 4.6 mph - N/A   Overcast
7:30 PM 28.4 °F - - N/A% 30.01 in 10.0 mi Calm Calm - N/A   Overcast
7:50 PM 28.4 °F - - N/A% 30.01 in 10.0 mi Calm Calm - N/A   Overcast
8:10 PM 28.4 °F - - N/A% 30.01 in 10.0 mi Calm Calm - N/A   Overcast
8:30 PM 28.4 °F 24.6 °F - N/A% 30.00 in 10.0 mi SSW 3.5 mph - N/A   Overcast
8:50 PM 28.4 °F - - N/A% 30.00 in 10.0 mi Calm Calm - N/A   Overcast
9:10 PM 28.4 °F - - N/A% 29.99 in 10.0 mi Calm Calm - N/A   Overcast
9:30 PM 28.4 °F - - N/A% 29.99 in 10.0 mi Calm Calm - N/A   Overcast
9:50 PM 28.4 °F - - N/A% 29.99 in 10.0 mi Calm Calm - N/A   Overcast
10:10 PM 28.4 °F - - N/A% 29.98 in 10.0 mi Calm Calm - N/A   Overcast
10:30 PM 28.4 °F - - N/A% 29.98 in 10.0 mi Calm Calm - N/A   Overcast
10:50 PM 26.6 °F - - N/A% 29.98 in 10.0 mi Calm Calm - N/A   Scattered Clouds
11:10 PM 26.6 °F - - N/A% 29.98 in 10.0 mi Calm Calm - N/A   Mostly Cloudy
11:30 PM 28.4 °F - - N/A% 29.99 in 10.0 mi Calm Calm - N/A   Overcast
11:50 PM 28.4 °F - - N/A% 29.99 in 10.0 mi Calm Calm - N/A   Overcast